• In Latvia
  • List of Countries
  • For 7 days
  • Water Temperature
  • Satellite Maps
  • Weather Map
  • Weather Widgets
  • user-avatar
    Login

    Hourly Weather Turlock

    Today, 21 February, Wednesday

    Time Temperature Precipitation Wind Pressure Humidity
    00:00 +4°C° 0 mm 1 mps 764 mmHg 60%
    01:00 +4°C° 0 mm 1 mps 764 mmHg 61%
    02:00 +4°C° 0 mm 1 mps 764 mmHg 62%
    03:00 +3°C° 0 mm 1 mps 764 mmHg 63%
    04:00 +3°C° 0 mm 1 mps 764 mmHg 67%
    05:00 +3°C° 0 mm 1 mps 764 mmHg 66%
    06:00 +3°C° 0 mm 1 mps 765 mmHg 65%
    07:00 +3°C° 0 mm 1 mps 765 mmHg 64%
    08:00 +5°C° 0 mm 1 mps 765 mmHg 57%
    09:00 +8°C° 0 mm 1 mps 764 mmHg 50%
    10:00 +10°C° 0 mm 1 mps 764 mmHg 43%
    11:00 +11°C° 0 mm 1 mps 764 mmHg 40%
    12:00 +12°C° 0 mm 1 mps 764 mmHg 37%
    13:00 +13°C° 0 mm 2 mps 764 mmHg 35%
    14:00 +13°C° 0 mm 2 mps 763 mmHg 36%
    15:00 +13°C° 0 mm 2 mps 763 mmHg 37%
    16:00 +13°C° 0 mm 2 mps 763 mmHg 38%
    17:00 +10°C° 0 mm 2 mps 763 mmHg 43%
    18:00 +9°C° 0 mm 1 mps 764 mmHg 49%
    19:00 +7°C° 0 mm 1 mps 764 mmHg 54%
    20:00 +6°C° 0 mm 1 mps 764 mmHg 56%
    21:00 +5°C° 0 mm 1 mps 765 mmHg 57%
    22:00 +5°C° 0 mm 1 mps 765 mmHg 58%
    23:00 +4°C° 0 mm 1 mps 765 mmHg 60%

    Tomorrow, 22 February, Thursday

    Time Temperature Precipitation Wind Pressure Humidity
    00:00 +4°C° 0 mm 1 mps 765 mmHg 61%
    01:00 +4°C° 0 mm 1 mps 765 mmHg 62%
    02:00 +4°C° 0 mm 1 mps 765 mmHg 63%
    03:00 +4°C° 0 mm 1 mps 765 mmHg 64%
    04:00 +2°C° 0 mm 2 mps 765 mmHg 65%
    05:00 +3°C° 0 mm 2 mps 765 mmHg 66%
    06:00 +3°C° 0 mm 2 mps 765 mmHg 67%
    07:00 +3°C° 0 mm 2 mps 765 mmHg 69%
    08:00 +5°C° 0 mm 2 mps 765 mmHg 64%
    09:00 +7°C° 0 mm 3 mps 765 mmHg 59%
    10:00 +9°C° 0 mm 3 mps 765 mmHg 54%
    11:00 +10°C° 0 mm 3 mps 764 mmHg 51%
    12:00 +10°C° 0 mm 4 mps 764 mmHg 48%
    13:00 +11°C° 0 mm 4 mps 764 mmHg 45%
    14:00 +11°C° 0.2 mm 4 mps 763 mmHg 48%
    15:00 +10°C° 0.2 mm 4 mps 763 mmHg 52%
    16:00 +10°C° 0.2 mm 4 mps 763 mmHg 55%
    17:00 +8°C° 0.5 mm 4 mps 763 mmHg 62%
    18:00 +7°C° 0.5 mm 3 mps 763 mmHg 69%
    19:00 +5°C° 0.5 mm 3 mps 763 mmHg 76%
    20:00 +4°C° 0.2 mm 3 mps 764 mmHg 77%
    21:00 +4°C° 0.2 mm 2 mps 764 mmHg 79%
    22:00 +4°C° 0.2 mm 2 mps 764 mmHg 80%
    23:00 +3°C° 0 mm 2 mps 765 mmHg 81%

    Day after tomorrow, 23 February, Friday

    Time Temperature Precipitation Wind Pressure Humidity
    00:00 +2°C° 0 mm 2 mps 765 mmHg 82%
    01:00 +2°C° 0 mm 2 mps 765 mmHg 83%
    02:00 +1°C° 0 mm 2 mps 766 mmHg 83%
    03:00 +1°C° 0 mm 2 mps 766 mmHg 84%
    04:00 +1°C° 0 mm 2 mps 766 mmHg 84%
    05:00 -1°C° 0 mm 2 mps 767 mmHg 84%
    06:00 -1°C° 0 mm 2 mps 767 mmHg 84%
    07:00 -1°C° 0 mm 2 mps 768 mmHg 84%
    08:00 +1°C° 0 mm 3 mps 768 mmHg 75%
    09:00 +3°C° 0 mm 3 mps 768 mmHg 66%
    10:00 +5°C° 0 mm 4 mps 768 mmHg 57%
    11:00 +7°C° 0 mm 4 mps 768 mmHg 51%
    12:00 +8°C° 0 mm 4 mps 768 mmHg 44%
    13:00 +10°C° 0 mm 5 mps 768 mmHg 38%
    14:00 +11°C° 0 mm 4 mps 767 mmHg 37%
    15:00 +11°C° 0 mm 4 mps 767 mmHg 36%
    16:00 +11°C° 0 mm 4 mps 767 mmHg 35%
    17:00 +9°C° 0 mm 3 mps 767 mmHg 40%
    18:00 +6°C° 0 mm 2 mps 768 mmHg 45%
    19:00 +4°C° 0 mm 2 mps 768 mmHg 49%
    20:00 +5°C° 0 mm 1 mps 769 mmHg 51%
    21:00 +4°C° 0 mm 1 mps 769 mmHg 53%
    22:00 +4°C° 0 mm 1 mps 769 mmHg 55%
    23:00 +3°C° 0 mm 1 mps 769 mmHg 57%

    24 February, Saturday

    Time Temperature Precipitation Wind Pressure Humidity
    00:00 +3°C° 0 mm 1 mps 769 mmHg 59%
    01:00 +3°C° 0 mm 1 mps 768 mmHg 61%
    02:00 +3°C° 0 mm 1 mps 768 mmHg 62%
    03:00 +2°C° 0 mm 1 mps 768 mmHg 64%
    04:00 +2°C° 0 mm 1 mps 768 mmHg 65%
    05:00 +2°C° 0 mm 1 mps 768 mmHg 67%
    06:00 +2°C° 0 mm 1 mps 768 mmHg 68%
    07:00 +2°C° 0 mm 1 mps 768 mmHg 69%
    08:00 +4°C° 0 mm 1 mps 768 mmHg 61%
    09:00 +7°C° 0 mm 1 mps 768 mmHg 53%
    10:00 +10°C° 0 mm 1 mps 768 mmHg 45%
    11:00 +11°C° 0 mm 1 mps 767 mmHg 43%
    12:00 +13°C° 0 mm 1 mps 767 mmHg 40%
    13:00 +14°C° 0 mm 2 mps 766 mmHg 37%
    14:00 +14°C° 0 mm 2 mps 766 mmHg 40%
    15:00 +14°C° 0 mm 2 mps 765 mmHg 42%
    16:00 +13°C° 0 mm 3 mps 765 mmHg 44%
    17:00 +11°C° 0 mm 3 mps 766 mmHg 52%
    18:00 +9°C° 0 mm 2 mps 766 mmHg 61%
    19:00 +7°C° 0 mm 2 mps 766 mmHg 69%
    20:00 +6°C° 0 mm 2 mps 766 mmHg 72%
    21:00 +5°C° 0 mm 2 mps 767 mmHg 75%
    22:00 +5°C° 0 mm 2 mps 767 mmHg 78%
    23:00 +4°C° 0 mm 2 mps 767 mmHg 80%

    25 February, Sunday

    Time Temperature Precipitation Wind Pressure Humidity
    00:00 +4°C° 0 mm 2 mps 767 mmHg 82%
    01:00 +3°C° 0 mm 2 mps 767 mmHg 84%
    02:00 +3°C° 0 mm 2 mps 767 mmHg 84%
    03:00 +3°C° 0 mm 2 mps 767 mmHg 83%
    04:00 +2°C° 0 mm 2 mps 767 mmHg 83%
    05:00 +2°C° 0 mm 2 mps 767 mmHg 82%
    06:00 +2°C° 0 mm 2 mps 767 mmHg 81%
    07:00 +2°C° 0 mm 2 mps 767 mmHg 80%
    08:00 +4°C° 0 mm 2 mps 767 mmHg 70%
    09:00 +7°C° 0 mm 2 mps 767 mmHg 60%
    10:00 +9°C° 0 mm 2 mps 767 mmHg 50%
    11:00 +12°C° 0 mm 2 mps 766 mmHg 46%
    12:00 +12°C° 0 mm 3 mps 766 mmHg 43%
    13:00 +13°C° 0 mm 3 mps 765 mmHg 39%
    14:00 +14°C° 0 mm 2 mps 765 mmHg 39%
    15:00 +14°C° 0 mm 2 mps 765 mmHg 39%
    16:00 +15°C° 0 mm 2 mps 764 mmHg 40%
    17:00 +12°C° 0 mm 1 mps 765 mmHg 47%
    18:00 +10°C° 0 mm 1 mps 765 mmHg 54%
    19:00 +8°C° 0 mm 1 mps 765 mmHg 61%
    20:00 +7°C° 0 mm 1 mps 765 mmHg 63%
    21:00 +7°C° 0 mm 1 mps 765 mmHg 65%
    22:00 +6°C° 0 mm 1 mps 765 mmHg 67%
    23:00 +6°C° 0 mm 1 mps 765 mmHg 68%

    26 February, Monday

    Time Temperature Precipitation Wind Pressure Humidity
    00:00 +6°C° 0 mm 1 mps 765 mmHg 70%
    01:00 +5°C° 0 mm 1 mps 765 mmHg 71%
    02:00 +5°C° 0 mm 1 mps 764 mmHg 73%
    03:00 +5°C° 0 mm 1 mps 764 mmHg 75%
    04:00 +4°C° 0 mm 1 mps 764 mmHg 77%
    05:00 +4°C° 0 mm 1 mps 764 mmHg 78%
    06:00 +4°C° 0 mm 1 mps 764 mmHg 79%
    07:00 +4°C° 0 mm 1 mps 764 mmHg 79%
    08:00 +7°C° 0 mm 1 mps 763 mmHg 72%
    09:00 +9°C° 0 mm 1 mps 763 mmHg 64%
    10:00 +12°C° 0 mm 1 mps 763 mmHg 57%
    11:00 +13°C° 0.1 mm 2 mps 762 mmHg 55%
    12:00 +14°C° 0.1 mm 2 mps 761 mmHg 54%
    13:00 +15°C° 0.1 mm 2 mps 761 mmHg 53%
    14:00 +13°C° 0.8 mm 3 mps 760 mmHg 61%
    15:00 +12°C° 0.8 mm 3 mps 760 mmHg 70%
    16:00 +11°C° 0.8 mm 3 mps 759 mmHg 78%
    17:00 +10°C° 0.6 mm 3 mps 759 mmHg 80%
    18:00 +9°C° 0.6 mm 3 mps 759 mmHg 81%
    19:00 +7°C° 0.6 mm 2 mps 759 mmHg 83%
    20:00 +6°C° 0.1 mm 2 mps 759 mmHg 84%
    21:00 +6°C° 0.1 mm 2 mps 759 mmHg 84%
    22:00 +5°C° 0.1 mm 2 mps 759 mmHg 85%
    23:00 +4°C° 0 mm 2 mps 760 mmHg 85%
    Show more